,,Stat5,,Stat1,,Stat2,,Stat3,,Stat4,,Wind1,,Wind1,
time,status,PA1M_AVG,status,PR1M_SUM,status,RH1M_AVG,status,SR1M_AVG,status,TA1M_AVG,status,W1dAve1m,status,W1sAve1m,
2001-07-24, 00:00:00,VALID,916.642,VALID,0,VALID,97.2091,VALID,-0.0169808,VALID,20.136,VALID,264,VALID,0,
2001-07-24, 00:01:00,VALID,916.636,VALID,0,VALID,97.162,VALID,0,VALID,20.1269,VALID,359,VALID,0,
2001-07-24, 00:02:00,VALID,916.649,VALID,0,VALID,97.1468,VALID,-0.0339617,VALID,20.1462,VALID,360,VALID,0,
2001-07-24, 00:03:00,VALID,916.63,VALID,0,VALID,97.1442,VALID,-0.0169808,VALID,20.1365,VALID,351,VALID,0,
2001-07-24, 00:04:00,VALID,916.627,VALID,0,VALID,97.1989,VALID,0,VALID,20.1527,VALID,336,VALID,0,
2001-07-24, 00:05:00,VALID,916.615,VALID,0,VALID,97.2053,VALID,0,VALID,20.139,VALID,319,VALID,0,
2001-07-24, 00:06:00,VALID,916.597,VALID,0,VALID,97.2472,VALID,-0.0169808,VALID,20.1649,VALID,319,VALID,0,
2001-07-24, 00:07:00,VALID,916.6,VALID,0,VALID,97.2002,VALID,-0.0339617,VALID,20.182,VALID,317,VALID,0,
2001-07-24, 00:08:00,VALID,916.582,VALID,0,VALID,97.2053,VALID,0,VALID,20.1654,VALID,317,VALID,0,
2001-07-24, 00:09:00,VALID,916.589,VALID,0,VALID,97.2688,VALID,-0.0169808,VALID,20.1748,VALID,317,VALID,0,
2001-07-24, 00:10:00,VALID,916.578,VALID,0,VALID,97.2892,VALID,0,VALID,20.1748,VALID,317,VALID,0,
2001-07-24, 00:11:00,VALID,916.581,VALID,0,VALID,97.3502,VALID,-0.0169808,VALID,20.1847,VALID,315,VALID,0,
2001-07-24, 00:12:00,VALID,916.586,VALID,0,VALID,97.4303,VALID,0,VALID,20.1818,VALID,306,VALID,0,
2001-07-24, 00:13:00,VALID,916.586,VALID,0,VALID,97.471,VALID,0,VALID,20.1845,VALID,278,VALID,0,
2001-07-24, 00:14:00,VALID,916.587,VALID,0,VALID,97.5143,VALID,-0.0169808,VALID,20.1944,VALID,260,VALID,0,
2001-07-24, 00:15:00,VALID,916.572,VALID,0,VALID,97.5524,VALID,0,VALID,20.1875,VALID,260,VALID,0,
2001-07-24, 00:16:00,VALID,916.557,VALID,0,VALID,97.6046,VALID,0,VALID,20.2111,VALID,260,VALID,0,
2001-07-24, 00:17:00,VALID,916.539,VALID,0,VALID,97.644,VALID,0,VALID,20.2208,VALID,260,VALID,0,
2001-07-24, 00:18:00,VALID,916.52,VALID,0,VALID,97.663,VALID,0,VALID,20.2302,VALID,19,VALID,0,
2001-07-24, 00:19:00,VALID,916.5,VALID,0,VALID,97.7279,VALID,-0.0169808,VALID,20.2561,VALID,37,VALID,0,
2001-07-24, 00:20:00,VALID,916.484,VALID,0,VALID,97.7228,VALID,0,VALID,20.2491,VALID,24,VALID,0,
2001-07-24, 00:21:00,VALID,916.46,VALID,0,VALID,97.7215,VALID,-0.0169808,VALID,20.2722,VALID,25,VALID,0,
2001-07-24, 00:22:00,VALID,916.453,VALID,0,VALID,97.6847,VALID,0,VALID,20.2722,VALID,15,VALID,0,
2001-07-24, 00:23:00,VALID,916.444,VALID,0,VALID,97.5995,VALID,0,VALID,20.259,VALID,16,VALID,0,
2001-07-24, 00:24:00,VALID,916.438,VALID,0,VALID,97.5817,VALID,0,VALID,20.2528,VALID,18,VALID,0,
2001-07-24, 00:25:00,VALID,916.425,VALID,0,VALID,97.6452,VALID,-0.0339617,VALID,20.2655,VALID,22,VALID,0,
2001-07-24, 00:26:00,VALID,916.419,VALID,0,VALID,97.5931,VALID,0,VALID,20.259,VALID,16,VALID,0,
2001-07-24, 00:27:00,VALID,916.412,VALID,0,VALID,97.4672,VALID,-0.0169808,VALID,20.2235,VALID,10,VALID,0,
2001-07-24, 00:28:00,VALID,916.401,VALID,0,VALID,97.4939,VALID,-0.0509425,VALID,20.2369,VALID,18,VALID,0.247596,
2001-07-24, 00:29:00,VALID,916.412,VALID,0,VALID,97.527,VALID,-0.0339617,VALID,20.2337,VALID,23,VALID,1.11266,
2001-07-24, 00:30:00,VALID,916.424,VALID,0,VALID,97.5003,VALID,-0.0679233,VALID,20.2302,VALID,23,VALID,1.34395,
2001-07-24, 00:31:00,VALID,916.405,VALID,0,VALID,97.5117,VALID,-0.0169808,VALID,20.2108,VALID,9,VALID,1.06908,
2001-07-24, 00:32:00,VALID,916.393,VALID,0,VALID,97.5511,VALID,-0.0339617,VALID,20.2173,VALID,21,VALID,0.846755,
2001-07-24, 00:33:00,VALID,916.377,VALID,0,VALID,97.5893,VALID,0,VALID,20.2039,VALID,13,VALID,0.687911,
2001-07-24, 00:34:00,VALID,916.345,VALID,0,VALID,97.5804,VALID,-0.0169808,VALID,20.2068,VALID,6,VALID,0.686098,
2001-07-24, 00:35:00,VALID,916.307,VALID,0,VALID,97.5232,VALID,-0.0509425,VALID,20.1947,VALID,4,VALID,0.628906,
2001-07-24, 00:36:00,VALID,916.287,VALID,0,VALID,97.3871,VALID,-0.0169808,VALID,20.1656,VALID,358,VALID,0.970954,
2001-07-24, 00:37:00,VALID,916.259,VALID,0,VALID,97.1201,VALID,-0.0509425,VALID,20.1199,VALID,336,VALID,0.95148,
2001-07-24, 00:38:00,VALID,916.238,VALID,0,VALID,96.9586,VALID,-0.0339617,VALID,20.111,VALID,340,VALID,0.542869,
2001-07-24, 00:39:00,VALID,916.239,VALID,0,VALID,97.0145,VALID,-0.0509425,VALID,20.111,VALID,360,VALID,0.586143,
2001-07-24, 00:40:00,VALID,916.221,VALID,0,VALID,97.0946,VALID,-0.0509425,VALID,20.1206,VALID,347,VALID,0.781651,
2001-07-24, 00:41:00,VALID,916.204,VALID,0,VALID,97.1798,VALID,-0.0849042,VALID,20.1144,VALID,10,VALID,0.503906,
2001-07-24, 00:42:00,VALID,916.198,VALID,0,VALID,97.3006,VALID,-0.101885,VALID,20.1172,VALID,18,VALID,0.601162,
2001-07-24, 00:43:00,VALID,916.191,VALID,0,VALID,97.3439,VALID,-0.0679233,VALID,20.1338,VALID,353,VALID,0.510074,
2001-07-24, 00:44:00,VALID,916.193,VALID,0,VALID,97.2841,VALID,-0.0509425,VALID,20.1142,VALID,351,VALID,0.274038,
2001-07-24, 00:45:00,VALID,916.189,VALID,0,VALID,97.2816,VALID,-0.0169808,VALID,20.0913,VALID,346,VALID,0.420641,
2001-07-24, 00:46:00,VALID,916.175,VALID,0,VALID,97.2867,VALID,-0.0509425,VALID,20.065,VALID,358,VALID,0.547476,
2001-07-24, 00:47:00,VALID,916.147,VALID,0,VALID,97.3172,VALID,-0.0509425,VALID,20.0687,VALID,347,VALID,0.566817,
2001-07-24, 00:48:00,VALID,916.138,VALID,0,VALID,97.4189,VALID,-0.0679233,VALID,20.0784,VALID,15,VALID,0.469351,
2001-07-24, 00:49:00,VALID,916.112,VALID,0,VALID,97.4672,VALID,-0.0169808,VALID,20.0849,VALID,359,VALID,0.820724,
2001-07-24, 00:50:00,VALID,916.111,VALID,0,VALID,97.4075,VALID,-0.0339617,VALID,20.0655,VALID,349,VALID,0.591346,
2001-07-24, 00:51:00,VALID,916.102,VALID,0,VALID,97.4405,VALID,-0.0509425,VALID,20.0625,VALID,359,VALID,0,
2001-07-24, 00:52:00,VALID,916.096,VALID,0,VALID,97.527,VALID,-0.0339617,VALID,20.0627,VALID,28,VALID,0,
2001-07-24, 00:53:00,VALID,916.1,VALID,0,VALID,97.602,VALID,-0.0679233,VALID,20.0757,VALID,24,VALID,0.113076,
2001-07-24, 00:54:00,VALID,916.092,VALID,0,VALID,97.6554,VALID,-0.0679233,VALID,20.0819,VALID,21,VALID,0.0576923,
2001-07-24, 00:55:00,VALID,916.075,VALID,0,VALID,97.6885,VALID,-0.0849042,VALID,20.0849,VALID,22,VALID,0,
2001-07-24, 00:56:00,VALID,916.057,VALID,0,VALID,97.7215,VALID,-0.0339617,VALID,20.0913,VALID,17,VALID,0,
2001-07-24, 00:57:00,VALID,916.045,VALID,0,VALID,97.7126,VALID,-0.0169808,VALID,20.0945,VALID,17,VALID,0,
2001-07-24, 00:58:00,VALID,916.026,VALID,0,VALID,97.6681,VALID,-0.0169808,VALID,20.0881,VALID,17,VALID,0,
2001-07-24, 00:59:00,VALID,916.005,VALID,0,VALID,97.6999,VALID,-0.0169808,VALID,20.0784,VALID,17,VALID,0,
2001-07-24, 01:00:00,VALID,915.99,VALID,0,VALID,97.7457,VALID,-0.0509425,VALID,20.0749,VALID,22,VALID,0.634415,
2001-07-24, 01:01:00,VALID,915.969,VALID,0,VALID,97.7864,VALID,-0.0339617,VALID,20.0786,VALID,25,VALID,0.0538651,
2001-07-24, 01:02:00,VALID,915.957,VALID,0,VALID,97.8423,VALID,0,VALID,20.0886,VALID,23,VALID,0.226362,
2001-07-24, 01:03:00,VALID,915.954,VALID,0,VALID,97.7877,VALID,-0.0509425,VALID,20.0687,VALID,3,VALID,0.363898,
2001-07-24, 01:04:00,VALID,915.944,VALID,0,VALID,97.7254,VALID,-0.0339617,VALID,20.0657,VALID,3,VALID,0,
2001-07-24, 01:05:00,VALID,915.936,VALID,0,VALID,97.7266,VALID,-0.0679233,VALID,20.0436,VALID,12,VALID,0,
2001-07-24, 01:06:00,VALID,915.93,VALID,0,VALID,97.8093,VALID,-0.0509425,VALID,20.0297,VALID,33,VALID,0,
2001-07-24, 01:07:00,VALID,915.929,VALID,0,VALID,97.8322,VALID,-0.0339617,VALID,20.0302,VALID,46,VALID,0,
2001-07-24, 01:08:00,VALID,915.932,VALID,0,VALID,97.8538,VALID,-0.0679233,VALID,20.0267,VALID,39,VALID,0,
2001-07-24, 01:09:00,VALID,915.914,VALID,0,VALID,97.8474,VALID,-0.0679233,VALID,20.0041,VALID,42,VALID,0,
2001-07-24, 01:10:00,VALID,915.905,VALID,0,VALID,97.8551,VALID,-0.0339617,VALID,20.0106,VALID,48,VALID,0,
2001-07-24, 01:11:00,VALID,915.874,VALID,0,VALID,97.8131,VALID,-0.0509425,VALID,19.9947,VALID,65,VALID,0,
2001-07-24, 01:12:00,VALID,915.847,VALID,0,VALID,97.7915,VALID,-0.0339617,VALID,19.9847,VALID,65,VALID,0,
2001-07-24, 01:13:00,VALID,915.825,VALID,0,VALID,97.7864,VALID,-0.0509425,VALID,19.9621,VALID,65,VALID,0,
2001-07-24, 01:14:00,VALID,915.797,VALID,0,VALID,97.8487,VALID,-0.0509425,VALID,19.9624,VALID,95,VALID,0,
2001-07-24, 01:15:00,VALID,915.803,VALID,0,VALID,97.8093,VALID,-0.0169808,VALID,19.9489,VALID,112,VALID,0,
2001-07-24, 01:16:00,VALID,915.795,VALID,0,VALID,97.794,VALID,-0.0169808,VALID,19.933,VALID,113,VALID,0,
2001-07-24, 01:17:00,VALID,915.795,VALID,0,VALID,97.8322,VALID,-0.0169808,VALID,19.933,VALID,127,VALID,0,
2001-07-24, 01:18:00,VALID,915.806,VALID,0,VALID,97.864,VALID,-0.0509425,VALID,19.9268,VALID,132,VALID,0,
2001-07-24, 01:19:00,VALID,915.799,VALID,0,VALID,97.8958,VALID,-0.0339617,VALID,19.9303,VALID,127,VALID,0,
2001-07-24, 01:20:00,VALID,915.789,VALID,0,VALID,97.9008,VALID,-0.0339617,VALID,19.933,VALID,131,VALID,0,
2001-07-24, 01:21:00,VALID,915.77,VALID,0,VALID,97.8614,VALID,-0.0509425,VALID,19.9166,VALID,133,VALID,0,
2001-07-24, 01:22:00,VALID,915.766,VALID,0,VALID,97.8703,VALID,-0.0849042,VALID,19.9035,VALID,133,VALID,0,
2001-07-24, 01:23:00,VALID,915.748,VALID,0,VALID,97.869,VALID,-0.0509425,VALID,19.9074,VALID,89,VALID,0,
2001-07-24, 01:24:00,VALID,915.742,VALID,0,VALID,97.925,VALID,-0.0339617,VALID,19.9171,VALID,78,VALID,0,
2001-07-24, 01:25:00,VALID,915.748,VALID,0,VALID,97.9339,VALID,-0.0169808,VALID,19.9171,VALID,78,VALID,0,
2001-07-24, 01:26:00,VALID,915.738,VALID,0,VALID,97.9326,VALID,-0.0169808,VALID,19.9335,VALID,78,VALID,0,
2001-07-24, 01:27:00,VALID,915.725,VALID,0,VALID,97.8373,VALID,-0.0169808,VALID,19.9236,VALID,78,VALID,0,
2001-07-24, 01:28:00,VALID,915.725,VALID,0,VALID,97.7877,VALID,-0.0169808,VALID,19.9077,VALID,89,VALID,0,
2001-07-24, 01:29:00,VALID,915.72,VALID,0,VALID,97.7228,VALID,-0.0339617,VALID,19.8881,VALID,94,VALID,0,
2001-07-24, 01:30:00,VALID,915.709,VALID,0,VALID,97.6872,VALID,-0.0339617,VALID,19.852,VALID,91,VALID,0,
2001-07-24, 01:31:00,VALID,915.71,VALID,0,VALID,97.6389,VALID,-0.0339617,VALID,19.8493,VALID,76,VALID,0,
2001-07-24, 01:32:00,VALID,915.725,VALID,0,VALID,97.5995,VALID,-0.0339617,VALID,19.8364,VALID,75,VALID,0,
2001-07-24, 01:33:00,VALID,915.737,VALID,0,VALID,97.5664,VALID,-0.0509425,VALID,19.82,VALID,82,VALID,0,
2001-07-24, 01:34:00,VALID,915.749,VALID,0,VALID,97.5829,VALID,-0.0169808,VALID,19.8175,VALID,87,VALID,0,
2001-07-24, 01:35:00,VALID,915.754,VALID,0,VALID,97.5829,VALID,0,VALID,19.7979,VALID,92,VALID,0,
2001-07-24, 01:36:00,VALID,915.757,VALID,0,VALID,97.6122,VALID,-0.0169808,VALID,19.7884,VALID,100,VALID,0.0949519,
2001-07-24, 01:37:00,VALID,915.765,VALID,0,VALID,97.63,VALID,-0.0169808,VALID,19.7683,VALID,120,VALID,0.154811,
2001-07-24, 01:38:00,VALID,915.765,VALID,0,VALID,97.6694,VALID,0,VALID,19.7653,VALID,126,VALID,0.173077,
2001-07-24, 01:39:00,VALID,915.758,VALID,0,VALID,97.7444,VALID,0,VALID,19.7621,VALID,138,VALID,0.658306,
2001-07-24, 01:40:00,VALID,915.765,VALID,0,VALID,97.8296,VALID,0,VALID,19.7589,VALID,146,VALID,0.798878,
2001-07-24, 01:41:00,VALID,915.752,VALID,0,VALID,97.8805,VALID,0,VALID,19.7656,VALID,144,VALID,0.970395,
2001-07-24, 01:42:00,VALID,915.751,VALID,0,VALID,97.9237,VALID,-0.0169808,VALID,19.7628,VALID,136,VALID,0.613782,
2001-07-24, 01:43:00,VALID,915.773,VALID,0,VALID,97.9504,VALID,0,VALID,19.7524,VALID,130,VALID,0.392887,
2001-07-24, 01:44:00,VALID,915.779,VALID,0,VALID,97.972,VALID,-0.0169808,VALID,19.7661,VALID,118,VALID,0.274439,
2001-07-24, 01:45:00,VALID,915.774,VALID,0,VALID,98.0051,VALID,-0.0169808,VALID,19.7599,VALID,100,VALID,0.67537,
2001-07-24, 01:46:00,VALID,915.775,VALID,0,VALID,98.0522,VALID,-0.0339617,VALID,19.7457,VALID,103,VALID,0.961338,
2001-07-24, 01:47:00,VALID,915.773,VALID,0,VALID,98.0547,VALID,-0.0679233,VALID,19.7559,VALID,104,VALID,0.582031,
2001-07-24, 01:48:00,VALID,915.758,VALID,0,VALID,98.0611,VALID,-0.0169808,VALID,19.7457,VALID,87,VALID,0.0590946,
2001-07-24, 01:49:00,VALID,915.745,VALID,0,VALID,98.1246,VALID,0,VALID,19.7427,VALID,113,VALID,0.55222,
2001-07-24, 01:50:00,VALID,915.737,VALID,0,VALID,98.1908,VALID,-0.0339617,VALID,19.7628,VALID,98,VALID,0.422877,
2001-07-24, 01:51:00,VALID,915.728,VALID,0,VALID,98.2251,VALID,-0.0169808,VALID,19.7626,VALID,115,VALID,0.370683,
2001-07-24, 01:52:00,VALID,915.716,VALID,0,VALID,98.2607,VALID,-0.0339617,VALID,19.7653,VALID,111,VALID,0.491787,
2001-07-24, 01:53:00,VALID,915.705,VALID,0,VALID,98.2874,VALID,-0.0509425,VALID,19.7591,VALID,97,VALID,0.138775,
2001-07-24, 01:54:00,VALID,915.69,VALID,0,VALID,98.3357,VALID,-0.0339617,VALID,19.7621,VALID,104,VALID,0.213141,
2001-07-24, 01:55:00,VALID,915.665,VALID,0,VALID,98.3662,VALID,-0.0679233,VALID,19.7556,VALID,103,VALID,0,
2001-07-24, 01:56:00,VALID,915.651,VALID,0,VALID,98.3866,VALID,-0.0169808,VALID,19.7631,VALID,115,VALID,0,
2001-07-24, 01:57:00,VALID,915.618,VALID,0,VALID,98.4082,VALID,0.0169808,VALID,19.7489,VALID,116,VALID,0.078125,
2001-07-24, 01:58:00,VALID,915.622,VALID,0,VALID,98.4184,VALID,0,VALID,19.7363,VALID,115,VALID,0.107171,
2001-07-24, 01:59:00,VALID,915.599,VALID,0,VALID,98.4336,VALID,0,VALID,19.74,VALID,106,VALID,0,
2001-07-24, 02:00:00,VALID,915.575,VALID,0,VALID,98.4629,VALID,0,VALID,19.7467,VALID,113,VALID,0,
2001-07-24, 02:01:00,VALID,915.559,VALID,0,VALID,98.4769,VALID,-0.0169808,VALID,19.734,VALID,118,VALID,0,
2001-07-24, 02:02:00,VALID,915.545,VALID,0,VALID,98.4896,VALID,-0.0169808,VALID,19.7176,VALID,130,VALID,0,
2001-07-24, 02:03:00,VALID,915.523,VALID,0,VALID,98.5227,VALID,0,VALID,19.7042,VALID,127,VALID,0,
2001-07-24, 02:04:00,VALID,915.503,VALID,0,VALID,98.5048,VALID,0,VALID,19.6878,VALID,106,VALID,0,
2001-07-24, 02:05:00,VALID,915.506,VALID,0,VALID,98.5214,VALID,0,VALID,19.6525,VALID,114,VALID,0,
2001-07-24, 02:06:00,VALID,915.506,VALID,0,VALID,98.5583,VALID,-0.0169808,VALID,19.653,VALID,110,VALID,0,
2001-07-24, 02:07:00,VALID,915.514,VALID,0,VALID,98.59,VALID,-0.0169808,VALID,19.6461,VALID,113,VALID,0,
2001-07-24, 02:08:00,VALID,915.514,VALID,0,VALID,98.6028,VALID,-0.0169808,VALID,19.6463,VALID,107,VALID,0,
2001-07-24, 02:09:00,VALID,915.532,VALID,0,VALID,98.59,VALID,-0.0339617,VALID,19.6341,VALID,109,VALID,0,
2001-07-24, 02:10:00,VALID,915.529,VALID,0,VALID,98.5557,VALID,-0.0169808,VALID,19.5946,VALID,119,VALID,0,
2001-07-24, 02:11:00,VALID,915.531,VALID,0,VALID,98.5684,VALID,-0.0339617,VALID,19.5658,VALID,131,VALID,0,
2001-07-24, 02:12:00,VALID,915.541,VALID,0,VALID,98.6167,VALID,-0.0339617,VALID,19.5596,VALID,136,VALID,0,
2001-07-24, 02:13:00,VALID,915.537,VALID,0,VALID,98.6396,VALID,-0.0509425,VALID,19.5598,VALID,131,VALID,0,
2001-07-24, 02:14:00,VALID,915.527,VALID,0,VALID,98.6422,VALID,-0.0339617,VALID,19.5566,VALID,145,VALID,0,
2001-07-24, 02:15:00,VALID,915.517,VALID,0,VALID,98.6193,VALID,-0.0339617,VALID,19.5437,VALID,142,VALID,0,
2001-07-24, 02:16:00,VALID,915.516,VALID,0,VALID,98.5786,VALID,-0.0509425,VALID,19.5275,VALID,140,VALID,0,
2001-07-24, 02:17:00,VALID,915.498,VALID,0,VALID,98.5684,VALID,-0.0169808,VALID,19.5084,VALID,144,VALID,0,
2001-07-24, 02:18:00,VALID,915.484,VALID,0,VALID,98.5875,VALID,-0.0339617,VALID,19.4888,VALID,138,VALID,0,
2001-07-24, 02:19:00,VALID,915.462,VALID,0,VALID,98.5773,VALID,-0.0169808,VALID,19.4724,VALID,134,VALID,0,
2001-07-24, 02:20:00,VALID,915.453,VALID,0,VALID,98.5443,VALID,-0.0169808,VALID,19.4532,VALID,131,VALID,0,
2001-07-24, 02:21:00,VALID,915.436,VALID,0,VALID,98.5379,VALID,-0.0169808,VALID,19.417,VALID,132,VALID,0,
2001-07-24, 02:22:00,VALID,915.427,VALID,0,VALID,98.5417,VALID,-0.0169808,VALID,19.4075,VALID,122,VALID,0,
2001-07-24, 02:23:00,VALID,915.412,VALID,0,VALID,98.5048,VALID,-0.0169808,VALID,19.375,VALID,116,VALID,0,
2001-07-24, 02:24:00,VALID,915.389,VALID,0,VALID,98.5341,VALID,-0.0339617,VALID,19.3663,VALID,121,VALID,0,
2001-07-24, 02:25:00,VALID,915.38,VALID,0,VALID,98.5672,VALID,-0.0169808,VALID,19.3561,VALID,124,VALID,0,
2001-07-24, 02:26:00,VALID,915.373,VALID,0,VALID,98.5633,VALID,-0.0339617,VALID,19.3434,VALID,136,VALID,0,
2001-07-24, 02:27:00,VALID,915.363,VALID,0,VALID,98.6002,VALID,-0.0679233,VALID,19.3303,VALID,143,VALID,0,
2001-07-24, 02:28:00,VALID,915.353,VALID,0,VALID,98.6574,VALID,-0.0509425,VALID,19.3501,VALID,136,VALID,0,
2001-07-24, 02:29:00,VALID,915.352,VALID,0,VALID,98.6752,VALID,0,VALID,19.3628,VALID,148,VALID,0,
2001-07-24, 02:30:00,VALID,915.351,VALID,0,VALID,98.7223,VALID,-0.0509425,VALID,19.376,VALID,116,VALID,0,
2001-07-24, 02:31:00,VALID,915.341,VALID,0,VALID,98.735,VALID,-0.0509425,VALID,19.3658,VALID,124,VALID,0,
2001-07-24, 02:32:00,VALID,915.329,VALID,0,VALID,98.7668,VALID,-0.0339617,VALID,19.3986,VALID,147,VALID,0,
2001-07-24, 02:33:00,VALID,915.31,VALID,0,VALID,98.8024,VALID,-0.0169808,VALID,19.4078,VALID,134,VALID,0,
2001-07-24, 02:34:00,VALID,915.296,VALID,0,VALID,98.8444,VALID,-0.0169808,VALID,19.4274,VALID,154,VALID,0,
2001-07-24, 02:35:00,VALID,915.281,VALID,0,VALID,98.8456,VALID,-0.0509425,VALID,19.4406,VALID,144,VALID,0,
2001-07-24, 02:36:00,VALID,915.294,VALID,0,VALID,98.8253,VALID,-0.0509425,VALID,19.4274,VALID,152,VALID,0,
2001-07-24, 02:37:00,VALID,915.296,VALID,0,VALID,98.8266,VALID,-0.0169808,VALID,19.418,VALID,135,VALID,0,
2001-07-24, 02:38:00,VALID,915.317,VALID,0,VALID,98.8342,VALID,-0.0169808,VALID,19.4048,VALID,126,VALID,0,
2001-07-24, 02:39:00,VALID,915.329,VALID,0,VALID,98.8393,VALID,0,VALID,19.3949,VALID,102,VALID,0,
2001-07-24, 02:40:00,VALID,915.365,VALID,0,VALID,98.8304,VALID,0,VALID,19.3822,VALID,116,VALID,0,
2001-07-24, 02:41:00,VALID,915.354,VALID,0,VALID,98.8164,VALID,-0.0339617,VALID,19.3626,VALID,119,VALID,0,
2001-07-24, 02:42:00,VALID,915.365,VALID,0,VALID,98.8622,VALID,-0.0509425,VALID,19.337,VALID,106,VALID,0,
2001-07-24, 02:43:00,VALID,915.354,VALID,0,VALID,98.8533,VALID,-0.0339617,VALID,19.3439,VALID,113,VALID,0,
2001-07-24, 02:44:00,VALID,915.336,VALID,0,VALID,98.8647,VALID,-0.0339617,VALID,19.3243,VALID,113,VALID,0,
2001-07-24, 02:45:00,VALID,915.32,VALID,0,VALID,98.8622,VALID,-0.0339617,VALID,19.3014,VALID,122,VALID,0,
2001-07-24, 02:46:00,VALID,915.313,VALID,0,VALID,98.8965,VALID,-0.0339617,VALID,19.3084,VALID,131,VALID,0,
2001-07-24, 02:47:00,VALID,915.304,VALID,0,VALID,98.9245,VALID,-0.0509425,VALID,19.3081,VALID,135,VALID,0,
2001-07-24, 02:48:00,VALID,915.317,VALID,0,VALID,98.9283,VALID,-0.0849042,VALID,19.3149,VALID,138,VALID,0,
2001-07-24, 02:49:00,VALID,915.319,VALID,0,VALID,98.9563,VALID,-0.0509425,VALID,19.3216,VALID,141,VALID,0,
2001-07-24, 02:50:00,VALID,915.313,VALID,0,VALID,98.9397,VALID,-0.0169808,VALID,19.3149,VALID,151,VALID,0,
2001-07-24, 02:51:00,VALID,915.32,VALID,0,VALID,98.9308,VALID,0,VALID,19.2952,VALID,148,VALID,0,
2001-07-24, 02:52:00,VALID,915.315,VALID,0,VALID,98.9486,VALID,-0.0679233,VALID,19.2855,VALID,156,VALID,0,
2001-07-24, 02:53:00,VALID,915.301,VALID,0,VALID,98.9664,VALID,-0.0169808,VALID,19.3144,VALID,152,VALID,0,
2001-07-24, 02:54:00,VALID,915.31,VALID,0,VALID,98.9639,VALID,-0.0509425,VALID,19.3116,VALID,148,VALID,0,
2001-07-24, 02:55:00,VALID,915.315,VALID,0,VALID,98.9664,VALID,-0.0169808,VALID,19.292,VALID,158,VALID,0,
2001-07-24, 02:56:00,VALID,915.331,VALID,0,VALID,98.9753,VALID,0,VALID,19.2987,VALID,152,VALID,0,
2001-07-24, 02:57:00,VALID,915.351,VALID,0,VALID,98.983,VALID,-0.0339617,VALID,19.3079,VALID,157,VALID,0,
2001-07-24, 02:58:00,VALID,915.373,VALID,0,VALID,98.9957,VALID,-0.0339617,VALID,19.2982,VALID,150,VALID,0,
2001-07-24, 02:59:00,VALID,915.391,VALID,0,VALID,98.9804,VALID,-0.0169808,VALID,19.295,VALID,159,VALID,0,
2001-07-24, 03:00:00,VALID,915.408,VALID,0,VALID,99.0237,VALID,-0.0169808,VALID,19.3146,VALID,158,VALID,0,
2001-07-24, 03:01:00,VALID,915.412,VALID,0,VALID,99.0186,VALID,-0.0679233,VALID,19.3054,VALID,158,VALID,0,
2001-07-24, 03:02:00,VALID,915.426,VALID,0,VALID,99.0033,VALID,-0.0339617,VALID,19.3019,VALID,182,VALID,0,
2001-07-24, 03:03:00,VALID,915.431,VALID,0,VALID,99.0249,VALID,-0.0339617,VALID,19.2952,VALID,150,VALID,0,
2001-07-24, 03:04:00,VALID,915.427,VALID,0,VALID,99.0237,VALID,-0.0339617,VALID,19.2985,VALID,157,VALID,0,
2001-07-24, 03:05:00,VALID,915.408,VALID,0,VALID,99.0224,VALID,-0.0169808,VALID,19.2724,VALID,176,VALID,0,
2001-07-24, 03:06:00,VALID,915.397,VALID,0,VALID,99.0122,VALID,-0.0339617,VALID,19.2761,VALID,181,VALID,0,
2001-07-24, 03:07:00,VALID,915.372,VALID,0,VALID,99.0109,VALID,0,VALID,19.2595,VALID,181,VALID,0,
2001-07-24, 03:08:00,VALID,915.353,VALID,0,VALID,98.9906,VALID,-0.0509425,VALID,19.2304,VALID,181,VALID,0,
2001-07-24, 03:09:00,VALID,915.316,VALID,0,VALID,98.9817,VALID,-0.0339617,VALID,19.2113,VALID,181,VALID,0,
2001-07-24, 03:10:00,VALID,915.277,VALID,0,VALID,98.9766,VALID,-0.0339617,VALID,19.1854,VALID,181,VALID,0,
2001-07-24, 03:11:00,VALID,915.256,VALID,0,VALID,98.9588,VALID,-0.0339617,VALID,19.1596,VALID,181,VALID,0,
2001-07-24, 03:12:00,VALID,915.228,VALID,0,VALID,98.9601,VALID,-0.0339617,VALID,19.1342,VALID,181,VALID,0,
2001-07-24, 03:13:00,VALID,915.208,VALID,0,VALID,98.9614,VALID,-0.0339617,VALID,19.1245,VALID,149,VALID,0,
2001-07-24, 03:14:00,VALID,915.189,VALID,0,VALID,98.9652,VALID,-0.0679233,VALID,19.0918,VALID,127,VALID,0,
2001-07-24, 03:15:00,VALID,915.182,VALID,0,VALID,98.997,VALID,-0.0339617,VALID,19.0721,VALID,141,VALID,0,
2001-07-24, 03:16:00,VALID,915.177,VALID,0,VALID,99.0109,VALID,-0.0339617,VALID,19.0657,VALID,106,VALID,0,
2001-07-24, 03:17:00,VALID,915.186,VALID,0,VALID,99.0351,VALID,-0.0509425,VALID,19.0724,VALID,105,VALID,0,
2001-07-24, 03:18:00,VALID,915.196,VALID,0,VALID,99.0529,VALID,-0.0169808,VALID,19.0694,VALID,102,VALID,0,
2001-07-24, 03:19:00,VALID,915.203,VALID,0,VALID,99.03,VALID,-0.0339617,VALID,19.0562,VALID,84,VALID,0,
2001-07-24, 03:20:00,VALID,915.23,VALID,0,VALID,99.0605,VALID,-0.0339617,VALID,19.0341,VALID,83,VALID,0,
2001-07-24, 03:21:00,VALID,915.239,VALID,0,VALID,99.0377,VALID,-0.0509425,VALID,19.0177,VALID,75,VALID,0,
2001-07-24, 03:22:00,VALID,915.248,VALID,0,VALID,99.0326,VALID,-0.0169808,VALID,18.972,VALID,69,VALID,0,
2001-07-24, 03:23:00,VALID,915.26,VALID,0,VALID,99.0923,VALID,-0.0849042,VALID,18.9981,VALID,71,VALID,0,
2001-07-24, 03:24:00,VALID,915.265,VALID,0,VALID,99.0771,VALID,-0.0339617,VALID,19.0013,VALID,69,VALID,0,
2001-07-24, 03:25:00,VALID,915.255,VALID,0,VALID,99.0504,VALID,-0.0509425,VALID,18.9723,VALID,67,VALID,0,
2001-07-24, 03:26:00,VALID,915.249,VALID,0,VALID,99.0415,VALID,-0.0339617,VALID,18.9499,VALID,71,VALID,0,
2001-07-24, 03:27:00,VALID,915.222,VALID,0,VALID,99.0351,VALID,-0.0169808,VALID,18.9303,VALID,75,VALID,0,
2001-07-24, 03:28:00,VALID,915.218,VALID,0,VALID,99.016,VALID,-0.0339617,VALID,18.9049,VALID,70,VALID,0,
2001-07-24, 03:29:00,VALID,915.193,VALID,0,VALID,99.0593,VALID,-0.0339617,VALID,18.9044,VALID,78,VALID,0,
2001-07-24, 03:30:01,VALID,915.189,VALID,0,VALID,99.0466,VALID,-0.0169808,VALID,18.9082,VALID,79,VALID,0,
2001-07-24, 03:31:00,VALID,915.181,VALID,0,VALID,99.03,VALID,-0.0169808,VALID,18.8885,VALID,79,VALID,0,
2001-07-24, 03:32:01,VALID,915.169,VALID,0,VALID,99.0402,VALID,-0.0509425,VALID,18.8793,VALID,86,VALID,0,
2001-07-24, 03:33:00,VALID,915.173,VALID,0,VALID,99.0211,VALID,-0.0339617,VALID,18.8528,VALID,76,VALID,0,
2001-07-24, 03:34:00,VALID,915.179,VALID,0,VALID,99.002,VALID,0,VALID,18.8212,VALID,69,VALID,0,
2001-07-24, 03:35:00,VALID,915.194,VALID,0,VALID,98.997,VALID,-0.0169808,VALID,18.7917,VALID,65,VALID,0,
2001-07-24, 03:36:00,VALID,915.217,VALID,0,VALID,99.0046,VALID,-0.0169808,VALID,18.7658,VALID,58,VALID,0,
2001-07-24, 03:37:00,VALID,915.219,VALID,0,VALID,98.9995,VALID,-0.0509425,VALID,18.7467,VALID,64,VALID,0,
2001-07-24, 03:38:00,VALID,915.256,VALID,0,VALID,99.0033,VALID,-0.0679233,VALID,18.7139,VALID,75,VALID,0,
2001-07-24, 03:39:00,VALID,915.265,VALID,0,VALID,99.0287,VALID,-0.0339617,VALID,18.7077,VALID,89,VALID,0,
2001-07-24, 03:40:01,VALID,915.292,VALID,0,VALID,99.0809,VALID,-0.0169808,VALID,18.7501,VALID,81,VALID,0,
2001-07-24, 03:41:00,VALID,915.302,VALID,0,VALID,99.044,VALID,-0.0169808,VALID,18.7142,VALID,54,VALID,0,